Weather History for Jefferson, NC

Change the Weather History Date:

Sunday, May 5, 2013

  Actual Average Record
Temperature  
Mean Temperature 44 °F -  
Max Temperature 48 °F 68 °F 81 °F (1969)
Min Temperature 41 °F 41 °F 28 °F (1986)
Degree Days  
Heating Degree Days 20    
Moisture  
Dew Point 42 °F    
Average Humidity 89    
Maximum Humidity 94    
Minimum Humidity 74    
Precipitation  
Precipitation 1.21 in - - ()
Sea Level Pressure  
Sea Level Pressure 29.99 in    
Wind  
Wind Speed 9 mph (ESE)    
Max Wind Speed 26 mph    
Max Gust Speed 36 mph    
Visibility 6 miles    
Events Rain    
Averages and records for this station are not official NWS values.
T = Trace of Precipitation, MM = Missing Value Source: NWS Daily Summary

Daily Weather History Graph

Daily Weather History Graph

Search for Another Location

Airport:

Trip Planner

Search our weather history database for the weather conditions in past years. The results will help you decide how hot, cold, wet, or windy it might be!

Date:

Astronomy

May. 05, 2013 Rise Set
Actual Time 6:27 AM EDT 8:17 PM EDT
Civil Twilight 5:59 AM EDT 8:45 PM EDT
Nautical Twilight 5:26 AM EDT 9:19 PM EDT
Astronomical Twilight 4:50 AM EDT 9:55 PM EDT
Moon 3:50 AM EDT (5/5) 4:21 PM EDT (5/5)
Length of Visible Light 14h 45m
Length of Day
13h 49m
Waning Crescent, 18% of the Moon is Illuminated
May 5
Waning Crescent
May 9
New
May 18
First Quarter
May 25
Full
May 31
Last Quarter

Hourly Weather History & Observations

Time (EDT) Temp. Windchill Dew Point Humidity Pressure Visibility Wind Dir Wind Speed Gust Speed Precip Events Conditions
12:15 AM 45.5 °F 43.2 °F 43.5 °F 93% 30.08 in 2.0 mi ESE 4.6 mph - N/A Rain Rain
12:35 AM 45.5 °F 39.6 °F 43.7 °F 93% 30.08 in 2.5 mi ESE 12.7 mph 16.1 mph N/A   Heavy Drizzle
12:55 AM 45.5 °F 40.8 °F 43.7 °F 93% 30.08 in 3.0 mi ESE 9.2 mph 19.6 mph N/A   Heavy Drizzle
1:15 AM 45.0 °F 37.9 °F 43.2 °F 93% 30.08 in 5.0 mi ESE 16.1 mph 24.2 mph 0.01 in Rain Light Rain
1:35 AM 45.0 °F 38.5 °F 42.8 °F 92% 30.08 in 10.0 mi ESE 13.8 mph 26.5 mph 0.01 in   Overcast
1:55 AM 44.8 °F 37.1 °F 42.4 °F 91% 30.07 in 7.0 mi ESE 18.4 mph 27.6 mph 0.01 in   Overcast
2:15 AM 44.8 °F 37.4 °F 42.6 °F 92% 30.05 in 4.0 mi ESE 17.3 mph 27.6 mph N/A Rain Light Rain
2:35 AM 44.6 °F 38.4 °F 42.1 °F 91% 30.04 in 7.0 mi ESE 12.7 mph 25.3 mph N/A   Overcast
2:55 AM 44.1 °F 39.5 °F 41.0 °F 89% 30.04 in 5.0 mi ESE 8.1 mph 19.6 mph N/A   Light Drizzle
3:15 AM 43.9 °F 41.3 °F 41.2 °F 90% 30.03 in 10.0 mi ESE 4.6 mph - N/A   Overcast
3:35 AM 43.7 °F 40.3 °F 40.5 °F 88% 30.02 in 10.0 mi East 5.8 mph - N/A   Overcast
3:55 AM 43.7 °F - 40.5 °F 88% 30.02 in 10.0 mi Calm Calm - N/A   Overcast
4:15 AM 43.7 °F 41.1 °F 40.6 °F 89% 30.02 in 10.0 mi ESE 4.6 mph - N/A   Overcast
4:35 AM 43.7 °F 36.9 °F 40.6 °F 89% 30.02 in 7.0 mi ESE 13.8 mph 21.9 mph N/A Rain Light Rain
4:55 AM 42.1 °F 40.2 °F 39.2 °F 90% 30.01 in 5.0 mi East 3.5 mph - N/A Rain Rain
5:15 AM 41.9 °F 36.9 °F 39.4 °F 91% 30.01 in 7.0 mi East 8.1 mph - N/A   Drizzle
5:35 AM 41.2 °F 38.2 °F 38.3 °F 89% 30.00 in 10.0 mi ENE 4.6 mph - N/A   Overcast
5:55 AM 41.2 °F - 37.8 °F 88% 29.99 in 10.0 mi Calm Calm - N/A   Overcast
6:15 AM 41.2 °F - 37.6 °F 87% 30.00 in 10.0 mi Calm Calm - N/A   Overcast
6:35 AM 41.0 °F 35.2 °F 36.5 °F 84% 30.01 in 10.0 mi ESE 9.2 mph - N/A   Overcast
6:55 AM 41.0 °F - 35.1 °F 79% 30.02 in 10.0 mi Calm Calm - N/A   Overcast
7:15 AM 41.0 °F 39.0 °F 35.1 °F 79% 30.02 in 10.0 mi East 3.5 mph - N/A   Light Drizzle
7:35 AM 41.4 °F - 36.1 °F 82% 30.02 in 10.0 mi Calm Calm - N/A Rain Rain
7:55 AM 41.5 °F - 36.1 °F 81% 30.01 in 10.0 mi Calm Calm - N/A Rain Light Rain
8:15 AM 41.9 °F 37.5 °F 35.1 °F 77% 30.00 in 10.0 mi East 6.9 mph - N/A Rain Light Rain
8:35 AM 41.5 °F - 35.8 °F 80% 30.00 in 10.0 mi Calm Calm - N/A   Overcast
8:55 AM 41.9 °F - 36.9 °F 82% 30.00 in 10.0 mi Calm Calm - N/A   Overcast
9:15 AM 42.1 °F 37.7 °F 36.9 °F 82% 30.01 in 10.0 mi East 6.9 mph - N/A   Light Drizzle
9:35 AM 42.6 °F 40.9 °F 36.3 °F 78% 30.00 in 10.0 mi East 3.5 mph - N/A   Overcast
9:55 AM 43.2 °F 41.5 °F 35.4 °F 74% 30.02 in 10.0 mi ESE 3.5 mph - N/A   Overcast
10:15 AM 43.3 °F 39.9 °F 36.5 °F 77% 30.01 in 10.0 mi ESE 5.8 mph - N/A   Overcast
10:35 AM 43.7 °F 41.1 °F 37.8 °F 80% 30.01 in 10.0 mi East 4.6 mph - N/A   Overcast
10:55 AM 43.7 °F 38.6 °F 37.8 °F 80% 30.01 in 10.0 mi ESE 9.2 mph 17.3 mph N/A   Light Drizzle
11:15 AM 43.7 °F 38.1 °F 39.4 °F 85% 30.00 in 10.0 mi ESE 10.4 mph 16.1 mph N/A   Overcast
11:35 AM 43.9 °F 40.5 °F 40.1 °F 87% 30.00 in 10.0 mi East 5.8 mph - N/A   Overcast
11:55 AM 43.9 °F 38.8 °F 40.1 °F 87% 30.00 in 3.0 mi ESE 9.2 mph - N/A   Heavy Drizzle
12:15 PM 44.4 °F 39.5 °F 41.9 °F 91% 30.00 in 2.5 mi ESE 9.2 mph - N/A Rain Heavy Rain
12:35 PM 43.2 °F 41.5 °F 41.2 °F 93% 30.00 in 1.5 mi SE 3.5 mph - N/A   Drizzle
12:55 PM 44.2 °F 39.2 °F 42.3 °F 93% 29.99 in 7.0 mi ESE 9.2 mph 19.6 mph N/A   Overcast
1:15 PM 44.2 °F 38.4 °F 42.3 °F 93% 29.98 in 4.0 mi ESE 11.5 mph 19.6 mph N/A Rain Light Rain
1:35 PM 45.3 °F 39.7 °F 43.5 °F 93% 29.97 in 2.0 mi East 11.5 mph 18.4 mph 0.01 in Rain Rain
1:55 PM 46.6 °F - 44.8 °F 93% 29.98 in 2.0 mi ESE 12.7 mph 24.2 mph 0.02 in Rain Light Rain
2:15 PM 46.8 °F - 45.0 °F 93% 29.98 in 4.0 mi ESE 15.0 mph 23.0 mph 0.04 in Rain Rain
2:35 PM 46.9 °F - 45.0 °F 93% 29.99 in 2.5 mi ESE 8.1 mph 24.2 mph 0.11 in Rain Heavy Rain
2:55 PM 45.5 °F - 43.7 °F 93% 29.99 in 0.5 mi Calm Calm - 0.21 in   Overcast
3:15 PM 45.0 °F 43.5 °F 43.2 °F 93% 29.99 in 0.8 mi South 3.5 mph - 0.07 in Rain Rain
3:35 PM 44.4 °F 42.9 °F 42.6 °F 93% 29.99 in 0.2 mi SSW 3.5 mph - 0.15 in   Overcast
3:55 PM 43.7 °F 42.1 °F 41.9 °F 93% 29.98 in 0.5 mi SSE 3.5 mph - 0.25 in   Overcast
4:15 PM 43.9 °F - 42.3 °F 94% 29.97 in 0.5 mi Calm Calm - 0.07 in   Overcast
4:35 PM 44.8 °F - 43.0 °F 93% 29.96 in 1.5 mi Calm Calm - 0.15 in Rain Rain
4:55 PM 46.0 °F 40.6 °F 44.4 °F 94% 29.93 in 3.0 mi East 11.5 mph - 0.20 in Rain Rain
5:15 PM 46.2 °F 42.7 °F 44.4 °F 93% 29.94 in 4.0 mi ENE 6.9 mph 16.1 mph 0.04 in Rain Rain
5:35 PM 46.0 °F 42.5 °F 44.2 °F 93% 29.93 in 1.5 mi East 6.9 mph - 0.11 in   Overcast
5:55 PM 46.9 °F - 45.1 °F 93% 29.92 in 5.0 mi ESE 17.3 mph 23.0 mph 0.12 in Rain Light Rain
6:15 PM 47.7 °F - 45.9 °F 93% 29.93 in 3.0 mi ESE 19.6 mph 34.5 mph 0.02 in Rain Rain
6:35 PM 47.7 °F - 45.7 °F 93% 29.93 in 2.0 mi ESE 17.3 mph 26.5 mph 0.07 in Rain Rain
7:15 PM 47.5 °F - 45.5 °F 93% 29.93 in 3.0 mi ESE 18.4 mph 32.2 mph 0.03 in Rain Rain
7:35 PM 47.5 °F - 45.5 °F 93% 29.92 in 3.0 mi ESE 16.1 mph 28.8 mph 0.07 in Rain Rain
7:55 PM 47.8 °F - 45.9 °F 93% 29.92 in 2.5 mi ESE 13.8 mph 29.9 mph 0.09 in Rain Light Rain
8:15 PM 48.2 °F - 46.2 °F 93% 29.92 in 3.0 mi ESE 13.8 mph 27.6 mph 0.02 in Rain Light Rain
8:35 PM 48.2 °F - 46.4 °F 93% 29.92 in 2.5 mi ESE 21.9 mph 33.4 mph 0.02 in Rain Light Rain
8:55 PM 48.6 °F - 46.8 °F 93% 29.92 in 3.0 mi ESE 26.5 mph 35.7 mph 0.02 in Rain Light Rain
9:15 PM 48.4 °F - 46.6 °F 93% 29.91 in 4.0 mi East 23.0 mph 29.9 mph 0.02 in Rain Light Rain
9:35 PM 48.4 °F - 46.6 °F 93% 29.92 in 5.0 mi East 20.7 mph 27.6 mph 0.02 in Rain Light Rain
9:55 PM 48.4 °F - 46.6 °F 93% 29.92 in 3.0 mi East 24.2 mph 33.4 mph 0.04 in Rain Rain
10:15 PM 48.4 °F - 46.6 °F 93% 29.92 in 3.0 mi ESE 23.0 mph 32.2 mph 0.03 in Rain Rain
10:35 PM 48.6 °F - 46.8 °F 93% 29.93 in 4.0 mi ESE 15.0 mph 25.3 mph 0.05 in Rain Rain
10:55 PM 48.6 °F - 46.8 °F 93% 29.93 in 4.0 mi East 17.3 mph 25.3 mph 0.10 in Rain Rain
11:15 PM 48.4 °F - 46.6 °F 93% 29.92 in 2.5 mi ESE 19.6 mph 27.6 mph 0.03 in Rain Rain
11:35 PM 48.7 °F - 46.9 °F 93% 29.93 in 4.0 mi ESE 13.8 mph 27.6 mph 0.05 in Rain Rain
11:55 PM 48.6 °F - 46.6 °F 93% 29.93 in 3.0 mi East 19.6 mph 31.1 mph 0.08 in Rain Rain